Startpagina
METAR-TAF:

METAR-TAF

Vliegvelden :

Boulder, Colorado, Verenigde Staten

breedte: 40-02-22N, lengte: 105-13-33W, hoogte: 1612 m

Actueel weer

Dit bericht is 32 minuten geleden gemaakt, om 15:30 UTC
Wind 5 kt uit het oosten
Temperatuur 5°C
Vochtigheid 24%
Druk 1015 hPa
Zicht: 16.1 km
Onbewolkt

METAR: KBDU 111530Z AUTO 08005KT 10SM CLR 05/M14 A2997 RMK AO2

Tijdstip: 09:02 (16:02 UTC)


TAF: ontbreekt

Waarnemingen en weersverwachtingen van meer dan 4000 vliegvelden (METAR en TAF).

De beschikbare stations zijn de gele en rode punten op de kaart.

Ga met uw muis naar het station om de naam te zien.

Klik dan om waarnemingen en weersverwachtingen te zien.

kaart wijzigen: klik op de groene knoppen met een zwart kruis om in te zoomen, op de groene knop met een streepje om uit te zoomen of op de groene pijlen voor aangrenzende kaarten.


METAR-TAF: